DW6004 Fair Lawn NJ US current weather conditions

sailwx.info

Wind from 288 at 4 knots gusting 13

Air temperature 13.3° C
Dewpoint 6.0° C

Last reported at 2019-Oct-18 14:05 UTC.
Time now 2019-Oct-18 14:19 UTC

Location: N 40°55' W 074°06'.
View on Google Maps.

See reports from other nearby stations

  
Tides and Currents Weather Stations Pressure Air Temp Water Temp Dewpoint Dewpoint Depression Visibility Wind Speed Wind Dir Waves Ship Positions
date/time (UTC)wind fromknots sea level pressurealtimeterstation pressurevisibilityair tempwater tempwave heightnotes
2019-Oct-18 14:05 288 4 gusting 13 13.3
2019-Oct-18 14:00 302 4 gusting 10 13.3
2019-Oct-18 13:55 316 4 gusting 10 13.3
2019-Oct-18 13:50 322 3 gusting 7 13.3
2019-Oct-18 13:45 308 2 gusting 8 12.2
2019-Oct-18 13:40 310 2 gusting 8 11.7
2019-Oct-18 13:35 342 2 gusting 6 11.1
2019-Oct-18 13:30 341 2 gusting 8 10.6
2019-Oct-18 13:25 323 3 gusting 8 10.6
2019-Oct-18 13:20 319 2 gusting 6 10.6
2019-Oct-18 13:15 331 4 gusting 11 10.6
2019-Oct-18 13:10 328 4 gusting 11 10.6
2019-Oct-18 13:05 342 4 gusting 12 10.6
2019-Oct-18 13:00 349 5 gusting 12 10.6
2019-Oct-18 12:55 337 4 gusting 11 10.6
2019-Oct-18 12:50 335 4 gusting 8 10.6
2019-Oct-18 12:45 338 4 gusting 10 10.6
2019-Oct-18 12:40 342 5 gusting 11 10.6
2019-Oct-18 12:35 339 5 gusting 11 10.6
2019-Oct-18 12:30 329 4 gusting 10 10.6
2019-Oct-18 12:25 326 4 gusting 10 10.6
2019-Oct-18 12:20 329 3 gusting 8 10.6
2019-Oct-18 12:15 331 3 gusting 9 10.6
2019-Oct-18 12:10 312 4 gusting 10 10.6
2019-Oct-18 12:05 309 4 gusting 11 10.6
2019-Oct-18 12:00 317 3 gusting 11 10.0
2019-Oct-18 11:55 318 3 gusting 13 10.0
2019-Oct-18 11:50 333 4 gusting 13 10.0
2019-Oct-18 11:45 316 4 gusting 12 10.0
2019-Oct-18 11:40 309 3 gusting 11 10.0
2019-Oct-18 11:35 330 2 gusting 7 10.0
2019-Oct-18 11:30 339 2 gusting 7 10.0
2019-Oct-18 11:25 337 2 gusting 10 10.0
2019-Oct-18 11:20 324 4 gusting 10 10.0
2019-Oct-18 11:15 308 4 gusting 12 10.0
2019-Oct-18 11:10 314 4 gusting 12 10.6
2019-Oct-18 11:05 328 4 gusting 13 10.0
2019-Oct-18 11:00 314 4 gusting 17 10.0
2019-Oct-18 10:55 300 2 gusting 17 10.0
2019-Oct-18 10:50 312 1 gusting 6 10.0
2019-Oct-18 10:45 311 1 gusting 6 10.0
2019-Oct-18 10:40 301 1 gusting 6 10.0
2019-Oct-18 10:35 322 1 gusting 6 10.0
2019-Oct-18 10:30 324 2 gusting 9 10.0
2019-Oct-18 10:25 312 2 gusting 9 10.0
2019-Oct-18 10:20 306 1 gusting 6 10.0
2019-Oct-18 10:15 289 1 gusting 6 10.0
2019-Oct-18 10:10 279 2 gusting 6 10.0
2019-Oct-18 10:05 304 3 gusting 9 10.0
2019-Oct-18 10:00 307 3 gusting 15 10.0
2019-Oct-18 09:55 304 3 gusting 15 10.0
2019-Oct-18 09:50 312 4 gusting 9 10.6
2019-Oct-18 09:45 307 4 gusting 14 10.6
2019-Oct-18 09:40 305 5 gusting 14 10.6
2019-Oct-18 09:35 308 4 gusting 11 10.6
2019-Oct-18 09:30 296 3 gusting 9 10.6
2019-Oct-18 09:25 321 3 gusting 10 10.6
2019-Oct-18 09:20 338 5 gusting 10 10.6
2019-Oct-18 09:15 321 6 gusting 17 10.6
2019-Oct-18 09:10 304 6 gusting 17 10.6
2019-Oct-18 09:05 305 4 gusting 13 10.6
2019-Oct-18 09:00 304 3 gusting 10 10.6
2019-Oct-18 08:55 289 4 gusting 10 10.6
2019-Oct-18 08:50 292 4 gusting 15 10.6
2019-Oct-18 08:45 304 6 gusting 15 10.6
2019-Oct-18 08:40 308 5 gusting 13 10.6
2019-Oct-18 08:35 304 6 gusting 15 11.1
2019-Oct-18 08:30 304 6 gusting 15 11.1
2019-Oct-18 08:25 301 6 gusting 13 11.1
2019-Oct-18 08:20 293 6 gusting 13 11.1
2019-Oct-18 08:15 297 5 gusting 13 11.1
2019-Oct-18 08:10 305 5 gusting 12 11.1
2019-Oct-18 08:05 294 4 gusting 12 11.1
2019-Oct-18 08:00 292 3 gusting 13 11.1
2019-Oct-18 07:55 302 3 gusting 13 11.1
2019-Oct-18 07:50 307 4 gusting 14 11.1
2019-Oct-18 07:45 305 4 gusting 14 11.1
2019-Oct-18 07:40 308 5 gusting 13 11.1
2019-Oct-18 07:35 311 5 gusting 17 11.1
2019-Oct-18 07:30 313 4 gusting 17 11.1
2019-Oct-18 07:25 315 5 gusting 12 11.1
2019-Oct-18 07:20 305 6 gusting 17 11.1
2019-Oct-18 07:15 299 5 gusting 17 11.1
2019-Oct-18 07:10 295 4 gusting 13 11.1
2019-Oct-18 07:05 286 4 gusting 13 11.1
2019-Oct-18 07:00 290 3 gusting 8 11.1
2019-Oct-18 06:55 292 3 gusting 12 11.1
2019-Oct-18 06:50 288 3 gusting 12 11.1
2019-Oct-18 06:45 288 3 gusting 11 11.1
2019-Oct-18 06:40 289 2 gusting 9 11.1
2019-Oct-18 06:35 291 3 gusting 9 11.1
2019-Oct-18 06:30 286 3 gusting 9 11.1
2019-Oct-18 06:25 286 4 gusting 9 11.1
2019-Oct-18 06:20 292 4 gusting 13 11.1
2019-Oct-18 06:15 290 4 gusting 13 11.1
2019-Oct-18 06:10 284 3 gusting 12 11.1
2019-Oct-18 06:05 285 2 gusting 13 11.1
2019-Oct-18 06:00 281 3 gusting 13 11.1
2019-Oct-18 05:55 278 3 gusting 12 11.1
2019-Oct-18 05:50 283 4 gusting 13 11.1
2019-Oct-18 05:45 284 5 gusting 13 11.1
2019-Oct-18 05:40 284 4 gusting 13 11.1
2019-Oct-18 05:35 287 6 gusting 13 11.1
2019-Oct-18 05:30 289 6 gusting 13 11.1
2019-Oct-18 05:25 293 5 gusting 12 11.1
2019-Oct-18 05:20 293 5 gusting 12 11.1
2019-Oct-18 05:15 288 6 gusting 17 11.1
2019-Oct-18 05:10 286 7 gusting 17 11.1
2019-Oct-18 05:05 285 7 gusting 17 11.1
2019-Oct-18 05:00 286 6 gusting 17 11.1
2019-Oct-18 04:55 287 5 gusting 15 11.1
2019-Oct-18 04:50 288 5 gusting 11 11.7
2019-Oct-18 04:45 289 6 gusting 16 11.7
2019-Oct-18 04:40 281 6 gusting 16 11.7
2019-Oct-18 04:35 277 6 gusting 13 11.7
2019-Oct-18 04:30 276 6 gusting 13 11.7
2019-Oct-18 04:25 274 5 gusting 12 11.7
2019-Oct-18 04:20 274 5 gusting 11 11.7
2019-Oct-18 04:15 279 5 gusting 11 11.7
2019-Oct-18 04:10 278 4 gusting 11 11.7
2019-Oct-18 04:05 278 6 gusting 19 11.7
2019-Oct-18 04:00 279 6 gusting 19 11.7
2019-Oct-18 03:55 280 4 gusting 14 11.7
2019-Oct-18 03:50 281 5 gusting 11 11.7
2019-Oct-18 03:45 277 4 gusting 11 11.7
2019-Oct-18 03:40 276 4 gusting 12 11.7
2019-Oct-18 03:35 277 5 gusting 12 11.7
2019-Oct-18 03:30 282 5 gusting 12 11.7
2019-Oct-18 03:25 278 6 gusting 14 11.7
2019-Oct-18 03:20 270 6 gusting 14 11.7
2019-Oct-18 03:15 268 5 gusting 10 11.7
2019-Oct-18 03:10 270 5 gusting 12 11.7
2019-Oct-18 03:05 270 5 gusting 12 11.7
2019-Oct-18 03:00 274 6 gusting 15 11.7
2019-Oct-18 02:55 279 6 gusting 23 11.7
2019-Oct-18 02:50 278 4 gusting 23 12.2
2019-Oct-18 02:45 279 3 gusting 10 12.2
2019-Oct-18 02:40 287 6 gusting 17 12.2
2019-Oct-18 02:35 290 6 gusting 17 12.2
2019-Oct-18 02:30 293 5 gusting 15 12.2
2019-Oct-18 02:25 288 5 gusting 13 12.2
2019-Oct-18 02:20 290 5 gusting 13 12.2
2019-Oct-18 02:15 291 6 gusting 16 12.2
2019-Oct-18 02:10 284 6 gusting 16 12.2
2019-Oct-18 02:05 277 6 gusting 13 12.2
2019-Oct-18 02:00 284 6 gusting 17 12.2
2019-Oct-18 01:55 290 5 gusting 17 12.2
2019-Oct-18 01:50 284 5 gusting 16 12.2
2019-Oct-18 01:45 282 6 gusting 16 12.2
2019-Oct-18 01:40 281 6 gusting 14 12.2
2019-Oct-18 01:35 281 6 gusting 14 12.2
2019-Oct-18 01:30 277 5 gusting 16 12.2
2019-Oct-18 01:25 275 5 gusting 16 12.2
2019-Oct-18 01:20 274 6 gusting 11 12.2
2019-Oct-18 01:15 276 5 gusting 11 12.2
2019-Oct-18 01:10 278 5 gusting 16 12.2
2019-Oct-18 01:05 277 5 gusting 16 12.2
2019-Oct-18 01:00 278 6 gusting 12 12.2
2019-Oct-18 00:55 280 6 gusting 12 12.2
2019-Oct-18 00:50 281 6 gusting 15 12.2
2019-Oct-18 00:45 280 6 gusting 15 12.2
2019-Oct-18 00:40 278 8 gusting 17 12.2
2019-Oct-18 00:35 277 6 gusting 17 12.8
2019-Oct-18 00:30 278 5 gusting 13 12.8
2019-Oct-18 00:25 283 5 gusting 13 12.8
2019-Oct-18 00:20 289 6 gusting 13 12.8
2019-Oct-18 00:15 280 6 gusting 13 12.8
2019-Oct-18 00:10 272 5 gusting 13 12.8
2019-Oct-18 00:05 276 6 gusting 14 12.8
2019-Oct-18 00:00 275 6 gusting 14 12.8
2019-Oct-17 23:55 280 6 gusting 15 12.8
2019-Oct-17 23:50 280 6 gusting 15 12.8
2019-Oct-17 23:45 279 7 gusting 13 12.8
2019-Oct-17 23:40 281 8 gusting 19 12.8
2019-Oct-17 23:35 281 7 gusting 19 12.8
2019-Oct-17 23:30 282 6 gusting 16 12.8
2019-Oct-17 23:25 278 6 gusting 14 12.8
2019-Oct-17 23:20 276 6 gusting 14 12.8
2019-Oct-17 23:15 279 6 gusting 18 12.8
2019-Oct-17 23:10 281 6 gusting 18 12.8
2019-Oct-17 23:05 284 7 gusting 17 12.8
2019-Oct-17 23:00 287 6 gusting 16 12.8
2019-Oct-17 22:55 286 7 gusting 19 13.3
2019-Oct-17 22:50 288 8 gusting 20 13.3
2019-Oct-17 22:45 290 7 gusting 20 13.3
2019-Oct-17 22:40 284 7 gusting 17 13.3
2019-Oct-17 22:35 282 8 gusting 17 13.3
2019-Oct-17 22:30 281 7 gusting 16 13.3
2019-Oct-17 22:25 282 7 gusting 15 13.3
2019-Oct-17 22:20 286 6 gusting 18 13.3
2019-Oct-17 22:15 285 7 gusting 18 13.3
2019-Oct-17 22:10 284 6 gusting 13 13.3
2019-Oct-17 22:05 282 6 gusting 19 13.3
2019-Oct-17 22:00 282 7 gusting 19 13.3
2019-Oct-17 21:55 284 7 gusting 16 13.3
2019-Oct-17 21:50 287 6 gusting 17 13.3
2019-Oct-17 21:45 293 6 gusting 17 13.3
2019-Oct-17 21:40 289 6 gusting 23 13.3
2019-Oct-17 21:35 285 7 gusting 23 13.3
2019-Oct-17 21:30 280 7 gusting 16 13.3
2019-Oct-17 21:25 280 7 gusting 19 13.3
2019-Oct-17 21:20 290 8 gusting 21 13.3
2019-Oct-17 21:15 287 7 gusting 21 13.3
2019-Oct-17 21:10 280 5 gusting 15 13.9
2019-Oct-17 21:05 283 6 gusting 20 13.9
2019-Oct-17 21:00 283 9 gusting 20 13.9
2019-Oct-17 20:55 272 9 gusting 13 13.9
2019-Oct-17 20:50 279 8 gusting 18 13.9
2019-Oct-17 20:45 282 8 gusting 20 13.9
2019-Oct-17 20:40 283 9 gusting 20 13.9
2019-Oct-17 20:35 282 9 gusting 18 13.9
2019-Oct-17 20:30 281 8 gusting 17 13.9
2019-Oct-17 20:25 278 7 gusting 20 13.9
2019-Oct-17 20:20 282 8 gusting 21 13.9
2019-Oct-17 20:15 283 8 gusting 21 13.9
2019-Oct-17 20:10 281 7 gusting 17 14.4
2019-Oct-17 20:05 286 7 gusting 17 14.4
2019-Oct-17 20:00 280 6 gusting 18 14.4
2019-Oct-17 19:55 278 6 gusting 18 13.9
2019-Oct-17 19:50 287 8 gusting 25 13.9
2019-Oct-17 19:45 284 10 gusting 25 13.9
2019-Oct-17 19:40 277 10 gusting 23 13.9
2019-Oct-17 19:35 275 9 gusting 23 13.9
2019-Oct-17 19:30 278 8 gusting 20 13.9
2019-Oct-17 19:25 278 7 gusting 18 14.4
2019-Oct-17 19:20 275 7 gusting 19 14.4
2019-Oct-17 19:15 278 10 gusting 22 14.4
2019-Oct-17 19:10 279 9 gusting 22 14.4
2019-Oct-17 19:05 280 7 gusting 17 13.9
2019-Oct-17 19:00 280 8 gusting 16 13.9
2019-Oct-17 18:55 278 8 gusting 19 13.9
2019-Oct-17 18:50 282 7 gusting 21 14.4
2019-Oct-17 18:45 282 6 gusting 21 14.4
2019-Oct-17 18:40 273 6 gusting 15 14.4
2019-Oct-17 18:35 274 7 gusting 15 14.4
2019-Oct-17 18:30 277 10 gusting 20 13.9
2019-Oct-17 18:25 278 10 gusting 20 13.3
2019-Oct-17 18:20 278 7 gusting 16 13.3
2019-Oct-17 18:15 274 8 gusting 19 13.3
2019-Oct-17 18:10 274 8 gusting 19 13.3
2019-Oct-17 18:05 273 7 gusting 19 13.3
2019-Oct-17 18:00 276 7 gusting 17 13.3
2019-Oct-17 17:55 274 8 gusting 17 13.3
2019-Oct-17 17:50 270 9 gusting 23 13.9
2019-Oct-17 17:45 273 10 gusting 23 13.9
2019-Oct-17 17:40 273 9 gusting 31 13.9
2019-Oct-17 17:35 274 10 gusting 31 13.9
2019-Oct-17 17:30 274 12 gusting 31 13.9
2019-Oct-17 17:25 271 12 gusting 31 13.9
2019-Oct-17 17:20 273 11 gusting 21 13.9
2019-Oct-17 17:15 274 11 gusting 23 13.9
2019-Oct-17 17:10 271 11 gusting 28 14.4
2019-Oct-17 17:05 266 13 gusting 33 14.4
2019-Oct-17 17:00 264 13 gusting 33 13.9
2019-Oct-17 16:55 266 11 gusting 26 13.9
2019-Oct-17 16:50 266 8 gusting 21 14.4
2019-Oct-17 16:45 261 8 gusting 16 13.9
2019-Oct-17 16:40 259 10 gusting 20 13.9
2019-Oct-17 16:35 268 10 gusting 25 13.3
2019-Oct-17 16:30 270 10 gusting 25 13.3
2019-Oct-17 16:25 262 8 gusting 22 13.3
2019-Oct-17 16:20 260 7 gusting 18 12.8
2019-Oct-17 16:15 264 9 gusting 26 12.8
2019-Oct-17 16:10 264 10 gusting 26 12.8
2019-Oct-17 16:05 265 9 gusting 26 12.8
2019-Oct-17 16:00 269 9 gusting 21 12.8
2019-Oct-17 15:55 272 9 gusting 21 12.8
2019-Oct-17 15:50 274 7 gusting 20 12.8
2019-Oct-17 15:45 274 8 gusting 24 12.8
2019-Oct-17 15:40 276 9 gusting 24 12.8
2019-Oct-17 15:35 272 8 gusting 19 12.8
2019-Oct-17 15:30 266 9 gusting 21 12.8
2019-Oct-17 15:25 267 10 gusting 22 12.8
2019-Oct-17 15:20 267 10 gusting 22 12.8
2019-Oct-17 15:15 267 10 gusting 21 12.8
2019-Oct-17 15:10 270 8 gusting 17 12.8
2019-Oct-17 15:05 264 8 gusting 15 12.8
2019-Oct-17 15:00 261 9 gusting 22 12.8
2019-Oct-17 14:55 265 8 gusting 22 12.8
2019-Oct-17 14:50 267 9 gusting 16 13.3
2019-Oct-17 14:45 269 9 gusting 19 13.3
2019-Oct-17 14:40 266 9 gusting 25 13.3
2019-Oct-17 14:35 266 9 gusting 25 12.8
2019-Oct-17 14:30 270 8 gusting 22 12.8
2019-Oct-17 14:25 262 8 gusting 22 12.2
2019-Oct-17 14:20 261 7 gusting 18 12.2
2019-Oct-17 14:15 262 7 gusting 18 12.2
2019-Oct-17 14:10 256 8 gusting 15 12.2
2019-Oct-17 14:05 258 7 gusting 15 12.2
2019-Oct-17 14:00 262 5 gusting 14 11.7
2019-Oct-17 13:55 255 5 gusting 14 11.7
2019-Oct-17 13:50 261 6 gusting 15 11.7
2019-Oct-17 13:45 264 7 gusting 20 11.7
2019-Oct-17 13:40 258 6 gusting 20 11.7
2019-Oct-17 13:35 258 6 gusting 15 11.7
2019-Oct-17 13:30 258 6 gusting 15 11.7
2019-Oct-17 13:25 265 7 gusting 14 11.7
2019-Oct-17 13:20 270 6 gusting 14 11.1
2019-Oct-17 13:15 266 6 gusting 13 11.1
2019-Oct-17 13:10 269 6 gusting 13 11.1
2019-Oct-17 13:05 264 6 gusting 18 11.1
2019-Oct-17 13:00 256 6 gusting 18 11.1
2019-Oct-17 12:55 256 7 gusting 16 11.1
2019-Oct-17 12:50 255 7 gusting 15 11.1
2019-Oct-17 12:45 258 6 gusting 15 11.1
2019-Oct-17 12:40 259 6 gusting 13 11.1
2019-Oct-17 12:35 260 6 gusting 13 11.1
2019-Oct-17 12:30 264 7 gusting 14 11.1
2019-Oct-17 12:25 262 6 gusting 14 11.1
2019-Oct-17 12:20 262 6 gusting 14 11.1
2019-Oct-17 12:15 267 6 gusting 14 11.1
2019-Oct-17 12:10 267 8 gusting 21 11.1
2019-Oct-17 12:05 269 9 gusting 21 11.1
2019-Oct-17 12:00 268 7 gusting 19 11.1
2019-Oct-17 11:55 260 6 gusting 17 11.1
2019-Oct-17 11:50 264 6 gusting 17 11.1
2019-Oct-17 11:45 263 6 gusting 14 11.1
2019-Oct-17 11:40 258 6 gusting 13 11.1
2019-Oct-17 11:35 261 6 gusting 13 11.1
2019-Oct-17 11:30 265 6 gusting 13 10.6
2019-Oct-17 11:25 262 6 gusting 13 10.6
2019-Oct-17 11:20 256 6 gusting 13 10.6
2019-Oct-17 11:15 261 5 gusting 13 10.6
2019-Oct-17 11:10 266 6 gusting 12 10.6
2019-Oct-17 11:05 262 6 gusting 13 10.6
2019-Oct-17 11:00 256 5 gusting 13 10.6
2019-Oct-17 10:55 259 5 gusting 12 10.6
2019-Oct-17 10:50 260 5 gusting 11 10.6
2019-Oct-17 10:45 254 5 gusting 9 10.6
2019-Oct-17 10:40 257 5 gusting 10 10.6
2019-Oct-17 10:35 261 5 gusting 10 10.6
2019-Oct-17 10:30 258 5 gusting 9 10.6
2019-Oct-17 10:25 264 5 gusting 9 10.6
2019-Oct-17 10:20 268 5 gusting 9 10.6
2019-Oct-17 10:15 262 5 gusting 13 10.6
2019-Oct-17 10:10 258 6 gusting 13 11.1
2019-Oct-17 10:05 257 6 gusting 12 11.1
2019-Oct-17 10:00 257 5 gusting 12 11.1
2019-Oct-17 09:55 261 6 gusting 15 11.1
2019-Oct-17 09:50 264 6 gusting 15 11.1
2019-Oct-17 09:45 264 6 gusting 14 11.1
2019-Oct-17 09:40 263 6 gusting 14 11.1
2019-Oct-17 09:35 265 6 gusting 11 11.1
2019-Oct-17 09:30 265 6 gusting 13 11.1
2019-Oct-17 09:25 266 6 gusting 13 11.1
2019-Oct-17 09:20 268 6 gusting 12 11.1
2019-Oct-17 09:15 270 6 gusting 11 11.1
2019-Oct-17 09:10 274 6 gusting 13 10.6
2019-Oct-17 09:05 270 6 gusting 13 10.6
2019-Oct-17 09:00 268 5 gusting 11 10.6
2019-Oct-17 08:55 268 5 gusting 11 10.6
2019-Oct-17 08:50 265 5 gusting 11 10.6
2019-Oct-17 08:45 270 5 gusting 14 10.6
2019-Oct-17 08:40 282 6 gusting 16 10.6
2019-Oct-17 08:35 280 6 gusting 16 10.6
2019-Oct-17 08:30 270 6 gusting 13 10.6
2019-Oct-17 08:25 265 6 gusting 14 10.6
2019-Oct-17 08:20 269 6 gusting 14 10.6
2019-Oct-17 08:15 270 6 gusting 12 10.6
2019-Oct-17 08:10 264 5 gusting 12 10.6
2019-Oct-17 08:05 267 6 gusting 17 10.6
2019-Oct-17 08:00 270 6 gusting 20 10.6
2019-Oct-17 07:55 270 6 gusting 20 10.6
2019-Oct-17 07:50 272 9 gusting 19 11.1
2019-Oct-17 07:45 272 8 gusting 19 11.1
2019-Oct-17 07:40 271 7 gusting 17 11.1
2019-Oct-17 07:35 273 8 gusting 18 11.1
2019-Oct-17 07:30 273 8 gusting 18 11.1
2019-Oct-17 07:25 274 8 gusting 18 11.1
2019-Oct-17 07:20 277 8 gusting 19 11.1
2019-Oct-17 07:15 276 7 gusting 19 11.1
2019-Oct-17 07:10 278 6 gusting 21 11.1
2019-Oct-17 07:05 275 7 gusting 21 11.1
2019-Oct-17 07:00 273 7 gusting 19 11.1
2019-Oct-17 06:55 276 7 gusting 16 11.1
2019-Oct-17 06:50 277 7 gusting 19 11.1
2019-Oct-17 06:45 277 7 gusting 19 11.1
2019-Oct-17 06:40 276 7 gusting 19 11.1
2019-Oct-17 06:35 281 6 gusting 15 11.1
2019-Oct-17 06:30 283 6 gusting 14 11.1
2019-Oct-17 06:25 280 4 gusting 10 11.1
2019-Oct-17 06:20 280 5 gusting 10 11.1
2019-Oct-17 06:15 287 6 gusting 13 11.1
2019-Oct-17 06:10 287 6 gusting 13 11.1
2019-Oct-17 06:05 289 6 gusting 19 10.6
2019-Oct-17 06:00 300 6 gusting 19 10.6
2019-Oct-17 05:55 300 5 gusting 15 10.6
2019-Oct-17 05:50 285 4 gusting 13 10.0
2019-Oct-17 05:45 286 5 gusting 15 10.0
2019-Oct-17 05:40 284 5 gusting 15 10.6
2019-Oct-17 05:35 280 6 gusting 12 10.0
2019-Oct-17 05:30 286 6 gusting 15 10.0
2019-Oct-17 05:25 289 6 gusting 15 10.6
2019-Oct-17 05:20 290 6 gusting 15 10.6
2019-Oct-17 05:15 301 6 gusting 16 10.6
2019-Oct-17 05:10 303 7 gusting 18 10.6
2019-Oct-17 05:05 293 7 gusting 19 10.6
2019-Oct-17 05:00 295 8 gusting 19 10.6
2019-Oct-17 04:55 298 8 gusting 21 11.1
2019-Oct-17 04:50 304 7 gusting 21 11.1
2019-Oct-17 04:45 306 7 gusting 18 11.1
2019-Oct-17 04:40 310 7 gusting 21 11.1
2019-Oct-17 04:35 310 6 gusting 21 11.1
2019-Oct-17 04:30 303 6 gusting 19 11.1
2019-Oct-17 04:25 300 6 gusting 19 11.1
2019-Oct-17 04:20 298 6 gusting 18 11.1
2019-Oct-17 04:15 302 6 gusting 18 11.1
2019-Oct-17 04:10 298 6 gusting 16 11.1
2019-Oct-17 04:05 288 6 gusting 16 11.1
2019-Oct-17 04:00 286 6 gusting 16 11.1
2019-Oct-17 03:55 290 6 gusting 17 11.7
2019-Oct-17 03:50 290 6 gusting 17 11.7
2019-Oct-17 03:45 287 6 gusting 16 11.7
2019-Oct-17 03:40 291 6 gusting 18 11.7
2019-Oct-17 03:35 294 7 gusting 18 11.7
2019-Oct-17 03:30 292 8 gusting 26 11.7
2019-Oct-17 03:25 290 9 gusting 26 11.7
2019-Oct-17 03:20 290 8 gusting 25 11.7
2019-Oct-17 03:15 294 7 gusting 19 11.7
2019-Oct-17 03:10 303 9 gusting 21 12.2
2019-Oct-17 03:05 312 9 gusting 24 12.2
2019-Oct-17 03:00 308 8 gusting 24 12.8
2019-Oct-17 02:55 298 9 gusting 24 13.3
2019-Oct-17 02:50 295 7 gusting 20 13.9
2019-Oct-17 02:45 291 6 gusting 17 14.4
2019-Oct-17 02:40 296 6 gusting 18 14.4
2019-Oct-17 02:35 303 6 gusting 18 14.4
2019-Oct-17 02:30 305 5 gusting 12 15.0
2019-Oct-17 02:25 310 3 gusting 11 15.0
2019-Oct-17 02:20 301 2 gusting 10 15.0
2019-Oct-17 02:15 291 2 gusting 10 15.6
2019-Oct-17 02:10 289 1 gusting 10 15.6
2019-Oct-17 02:05 287 2 gusting 10 15.6
2019-Oct-17 02:00 282 3 gusting 9 15.6
2019-Oct-17 01:55 277 1 gusting 6 15.6
2019-Oct-17 01:50 306 0 gusting 4 15.6
2019-Oct-17 01:45 002 0 gusting 4 15.6
2019-Oct-17 01:40 356 15.6
2019-Oct-17 01:35 15.6
2019-Oct-17 01:30 012 15.6
2019-Oct-17 01:25 044 15.6
2019-Oct-17 01:20 053 15.6
2019-Oct-17 01:15 021 0 gusting 5 15.6
2019-Oct-17 01:10 040 0 gusting 5 15.6
2019-Oct-17 01:05 058 1 gusting 10 15.6
2019-Oct-17 01:00 064 2 gusting 10 15.6
2019-Oct-17 00:55 076 0 gusting 8 15.6
2019-Oct-17 00:50 071 0 gusting 5 15.6
2019-Oct-17 00:45 082 1 gusting 7 15.6
2019-Oct-17 00:40 094 0 gusting 7 15.6
2019-Oct-17 00:35 104 0 gusting 7 15.6
2019-Oct-17 00:30 101 0 gusting 6 15.6
2019-Oct-17 00:25 104 0 gusting 6 15.6
2019-Oct-17 00:20 092 0 gusting 6 15.6
2019-Oct-17 00:15 082 1 gusting 8 15.6
2019-Oct-17 00:10 090 1 gusting 11 15.6
2019-Oct-17 00:05 089 1 gusting 11 15.6
2019-Oct-17 00:00 071 0 gusting 8 15.6
2019-Oct-16 23:55 075 0 gusting 6 15.6
2019-Oct-16 23:50 087 0 gusting 6 15.6
2019-Oct-16 23:45 096 3 gusting 12 15.6
2019-Oct-16 23:40 097 3 gusting 12 15.6
2019-Oct-16 23:35 094 1 gusting 9 15.6
2019-Oct-16 23:30 098 1 gusting 10 15.6
2019-Oct-16 23:25 100 1 gusting 10 15.6
2019-Oct-16 23:20 102 3 gusting 12 15.6
2019-Oct-16 23:15 105 3 gusting 12 15.6
2019-Oct-16 23:10 109 2 gusting 15 15.6
2019-Oct-16 23:05 111 2 gusting 15 15.6
2019-Oct-16 23:00 113 1 gusting 8 16.1
2019-Oct-16 22:55 119 0 gusting 8 16.1
2019-Oct-16 22:50 109 0 gusting 7 16.1
2019-Oct-16 22:45 108 0 gusting 7 16.1
2019-Oct-16 22:40 110 0 gusting 9 16.1
2019-Oct-16 22:35 103 1 gusting 9 16.1
2019-Oct-16 22:30 114 1 gusting 9 16.1
2019-Oct-16 22:25 127 1 gusting 10 16.1
2019-Oct-16 22:20 124 1 gusting 10 16.1
2019-Oct-16 22:15 119 0 gusting 6 16.1
2019-Oct-16 22:10 125 0 gusting 6 16.1
2019-Oct-16 22:05 108 1 gusting 13 16.1
2019-Oct-16 22:00 105 1 gusting 13 16.1
2019-Oct-16 21:55 108 0 gusting 9 16.1
2019-Oct-16 21:50 100 0 gusting 7 16.1
2019-Oct-16 21:45 069 1 gusting 10 16.1
2019-Oct-16 21:40 065 1 gusting 10 16.1
2019-Oct-16 21:35 068 16.1
2019-Oct-16 21:30 082 0 gusting 6 16.1
2019-Oct-16 21:25 080 1 gusting 6 16.1
2019-Oct-16 21:20 080 1 gusting 7 16.1
2019-Oct-16 21:15 110 0 gusting 7 16.1
2019-Oct-16 21:10 123 0 gusting 7 16.1
2019-Oct-16 21:05 118 0 gusting 7 16.1
2019-Oct-16 21:00 113 1 gusting 8 16.1
2019-Oct-16 20:55 110 0 gusting 8 16.1
2019-Oct-16 20:50 102 1 gusting 13 16.1
2019-Oct-16 20:45 097 1 gusting 13 16.1
2019-Oct-16 20:40 092 0 gusting 8 16.1
2019-Oct-16 20:35 107 1 gusting 9 16.1
2019-Oct-16 20:30 088 2 gusting 11 16.1
2019-Oct-16 20:25 070 1 gusting 11 16.1
2019-Oct-16 20:20 091 0 gusting 6 16.1
2019-Oct-16 20:15 109 16.1
2019-Oct-16 20:10 099 16.1
2019-Oct-16 20:05 051 16.1
2019-Oct-16 20:00 114 16.1
2019-Oct-16 19:55 123 0 gusting 7 16.1
2019-Oct-16 19:50 121 0 gusting 7 16.1
2019-Oct-16 19:45 122 1 gusting 6 16.1
2019-Oct-16 19:40 136 1 gusting 6 16.1
2019-Oct-16 19:35 127 1 gusting 6 16.7
2019-Oct-16 19:30 116 0 gusting 6 16.7
2019-Oct-16 19:25 117 0 gusting 7 16.7
2019-Oct-16 19:20 131 1 gusting 7 16.7
2019-Oct-16 19:15 128 1 gusting 6 16.7
2019-Oct-16 19:10 124 3 gusting 8 16.7
2019-Oct-16 19:05 129 5 gusting 13 17.2
2019-Oct-16 19:00 127 6 gusting 16 17.2
2019-Oct-16 18:55 137 6 gusting 16 17.2
2019-Oct-16 18:50 152 6 gusting 19 17.8
2019-Oct-16 18:45 148 6 gusting 19 18.3
2019-Oct-16 18:40 140 6 gusting 13 18.9
2019-Oct-16 18:35 128 6 gusting 14 18.9
2019-Oct-16 18:30 123 6 gusting 16 18.9
2019-Oct-16 18:25 126 6 gusting 16 18.9
2019-Oct-16 18:20 125 6 gusting 16 18.9
2019-Oct-16 18:15 127 6 gusting 16 18.9
2019-Oct-16 18:10 139 6 gusting 15 18.3
2019-Oct-16 18:05 135 6 gusting 19 18.3
2019-Oct-16 18:00 126 7 gusting 19 18.3
2019-Oct-16 17:55 129 7 gusting 17 18.3
2019-Oct-16 17:50 132 6 gusting 17 18.3
2019-Oct-16 17:45 129 6 gusting 15 18.3
2019-Oct-16 17:40 136 6 gusting 14 18.3
2019-Oct-16 17:35 147 5 gusting 13 18.3
2019-Oct-16 17:30 137 5 gusting 11 18.3
2019-Oct-16 17:25 126 6 gusting 13 18.9
2019-Oct-16 17:20 122 6 gusting 14 18.9
2019-Oct-16 17:15 122 6 gusting 14 18.9
2019-Oct-16 17:10 128 6 gusting 14 18.9
2019-Oct-16 17:05 135 6 gusting 15 18.3
2019-Oct-16 17:00 136 6 gusting 15 18.3
2019-Oct-16 16:55 130 6 gusting 13 18.3
2019-Oct-16 16:50 126 6 gusting 19 18.3
2019-Oct-16 16:45 130 6 gusting 19 18.9
2019-Oct-16 16:40 133 6 gusting 15 18.9
2019-Oct-16 16:35 138 6 gusting 13 18.9
2019-Oct-16 16:30 139 6 gusting 12 18.9
2019-Oct-16 16:25 136 5 gusting 12 18.9
2019-Oct-16 16:20 134 5 gusting 13 18.9
2019-Oct-16 16:15 131 4 gusting 13 18.9
2019-Oct-16 16:10 135 4 gusting 10 18.9
2019-Oct-16 16:05 137 5 gusting 11 18.9
2019-Oct-16 16:00 127 5 gusting 12 18.9
2019-Oct-16 15:55 124 4 gusting 12 18.9
2019-Oct-16 15:50 131 4 gusting 10 18.3
2019-Oct-16 15:45 134 4 gusting 11 18.3
2019-Oct-16 15:40 135 4 gusting 11 18.3
2019-Oct-16 15:35 134 4 gusting 12 18.9
2019-Oct-16 15:30 132 4 gusting 12 18.9
2019-Oct-16 15:25 130 3 gusting 8 18.9
2019-Oct-16 15:20 126 4 gusting 14 18.3
2019-Oct-16 15:15 123 3 gusting 14 18.3
2019-Oct-16 15:10 124 2 gusting 8 17.8
2019-Oct-16 15:05 127 2 gusting 9 17.2
2019-Oct-16 15:00 129 2 gusting 9 17.2
2019-Oct-16 14:55 125 2 gusting 6 17.2
2019-Oct-16 14:50 122 1 gusting 6 17.2
2019-Oct-16 14:45 119 1 gusting 6 16.7
2019-Oct-16 14:40 124 1 gusting 6 16.7
2019-Oct-16 14:35 124 1 gusting 6 16.7
2019-Oct-16 14:30 134 1 gusting 6 16.7
2019-Oct-16 14:25 143 1 gusting 6 16.1
2019-Oct-16 14:20 126 1 gusting 6 16.1
2019-Oct-16 14:15 122 0 gusting 6 16.1
2019-Oct-16 14:10 136 0 gusting 3 15.6
2019-Oct-16 14:05 140 0 gusting 3 15.6
2019-Oct-16 14:00 126 1 gusting 6 15.6